Location: Arleux
(50.3632°N, 2.8721°E)
Time: 21:06:55
(UTC+00:00)

CZ-4B DEB - Pass Details

Date: 15 December 2019
Orbit: 841 x 861 km, 99.1° (Epoch: 26 January)

Event Time Altitude Azimuth Distance (km) Brightness Sun altitude
Rises 05:36:30 0° 14° (NNE) 3,435 7.4 -18.8°
Reaches altitude 10° 05:38:52 10° 12° (NNE) 2,498 6.6 -18.4°
Maximum altitude 05:44:24 72° 290° (WNW) 902 4.1 -17.5°
Drops below altitude 10° 05:49:55 10° 206° (SSW) 2,491 6.5 -16.7°
Sets 05:52:17 0° 205° (SSW) 3,425 7.3 -16.3°
